Time,TemperatureF,DewpointF,PressureIn,WindDirection,WindDirectionDegrees,WindSpeedMPH,WindSpeedGustMPH,Humidity,HourlyPrecipIn,Conditions,Clouds,dailyrainin,SolarRadiationWatts/m^2,SoftwareType,DateUTC
2013-05-05 00:01:00,51.4,46.1,29.97,WNW,296,0.0,0.0,82,0.00,,,0.00,0,WeatherCatV1.14B232,2013-05-05 07:01:00,
2013-05-05 00:06:00,51.3,46.3,29.97,WNW,296,0.0,0.0,83,0.00,,,0.00,0,WeatherCatV1.14B232,2013-05-05 07:06:00,
2013-05-05 00:11:00,51.1,46.4,29.97,WNW,296,0.0,0.0,84,0.00,,,0.00,0,WeatherCatV1.14B232,2013-05-05 07:11:00,
2013-05-05 00:16:00,50.8,45.8,29.97,WNW,296,0.0,0.0,83,0.00,,,0.00,0,WeatherCatV1.14B232,2013-05-05 07:16:00,
2013-05-05 00:21:00,50.7,45.7,29.97,WNW,296,0.0,0.0,83,0.00,,,0.00,0,WeatherCatV1.14B232,2013-05-05 07:21:00,
2013-05-05 00:26:00,50.4,45.7,29.97,WNW,296,0.0,0.0,84,0.00,,,0.00,0,WeatherCatV1.14B232,2013-05-05 07:26:00,
2013-05-05 00:31:00,50.2,45.6,29.97,WNW,296,0.0,0.0,84,0.00,,,0.00,0,WeatherCatV1.14B232,2013-05-05 07:31:00,
2013-05-05 00:36:00,50.1,45.5,29.97,WNW,296,0.0,0.0,84,0.00,,,0.00,0,WeatherCatV1.14B232,2013-05-05 07:36:00,
2013-05-05 00:41:00,49.9,45.3,29.97,WNW,296,0.0,0.0,84,0.00,,,0.00,0,WeatherCatV1.14B232,2013-05-05 07:41:00,
2013-05-05 00:46:00,49.8,45.2,29.97,WNW,296,0.0,0.0,84,0.00,,,0.00,0,WeatherCatV1.14B232,2013-05-05 07:46:00,
2013-05-05 00:51:00,49.6,45.0,29.97,WNW,296,0.0,0.0,84,0.00,,,0.00,0,WeatherCatV1.14B232,2013-05-05 07:51:00,
2013-05-05 00:56:00,49.4,44.8,29.97,WNW,296,0.0,0.0,84,0.00,,,0.00,0,WeatherCatV1.14B232,2013-05-05 07:56:00,
2013-05-05 01:01:00,49.2,44.9,29.96,WNW,296,0.0,0.0,85,0.00,,,0.00,0,WeatherCatV1.14B232,2013-05-05 08:01:00,
2013-05-05 01:06:00,49.1,44.8,29.96,WNW,296,0.0,0.0,85,0.00,,,0.00,0,WeatherCatV1.14B232,2013-05-05 08:06:00,
2013-05-05 01:11:00,48.9,44.6,29.96,WNW,296,0.0,0.0,85,0.00,,,0.00,0,WeatherCatV1.14B232,2013-05-05 08:11:00,
2013-05-05 01:16:00,48.8,44.5,29.96,WNW,296,0.0,0.0,85,0.00,,,0.00,0,WeatherCatV1.14B232,2013-05-05 08:16:00,
2013-05-05 01:21:00,48.8,44.8,29.96,WNW,296,0.0,0.0,86,0.00,,,0.00,0,WeatherCatV1.14B232,2013-05-05 08:21:00,
2013-05-05 01:26:00,48.5,44.5,29.96,WNW,296,0.0,0.0,86,0.00,,,0.00,0,WeatherCatV1.14B232,2013-05-05 08:26:00,
2013-05-05 01:31:00,48.3,44.6,29.95,WNW,296,0.0,1.0,87,0.00,,,0.00,0,WeatherCatV1.14B232,2013-05-05 08:31:00,
2013-05-05 01:36:00,48.2,44.5,29.95,WNW,296,0.0,0.0,87,0.00,,,0.00,0,WeatherCatV1.14B232,2013-05-05 08:36:00,
2013-05-05 01:41:00,48.0,44.3,29.95,WNW,296,0.0,0.0,87,0.00,,,0.00,0,WeatherCatV1.14B232,2013-05-05 08:41:00,
2013-05-05 01:46:00,47.9,44.2,29.95,WNW,296,0.0,0.0,87,0.00,,,0.00,0,WeatherCatV1.14B232,2013-05-05 08:46:00,
2013-05-05 01:51:00,47.7,44.0,29.95,WNW,296,0.0,0.0,87,0.00,,,0.00,0,WeatherCatV1.14B232,2013-05-05 08:51:00,
2013-05-05 01:56:00,47.6,44.2,29.95,WNW,296,0.0,0.0,88,0.00,,,0.00,0,WeatherCatV1.14B232,2013-05-05 08:56:00,
2013-05-05 02:01:00,47.4,44.0,29.95,WNW,296,0.0,0.0,88,0.00,,,0.00,0,WeatherCatV1.14B232,2013-05-05 09:01:00,
2013-05-05 02:06:00,47.3,43.9,29.95,WNW,296,0.0,0.0,88,0.00,,,0.00,0,WeatherCatV1.14B232,2013-05-05 09:06:00,
2013-05-05 02:11:00,47.0,43.6,29.95,WNW,296,0.0,0.0,88,0.00,,,0.00,0,WeatherCatV1.14B232,2013-05-05 09:11:00,
2013-05-05 02:16:00,47.0,43.9,29.95,WNW,296,0.0,0.0,89,0.00,,,0.00,0,WeatherCatV1.14B232,2013-05-05 09:16:00,
2013-05-05 02:21:00,46.8,43.7,29.95,WNW,296,0.0,0.0,89,0.00,,,0.00,0,WeatherCatV1.14B232,2013-05-05 09:21:00,
2013-05-05 02:26:00,46.7,43.6,29.95,WNW,296,0.0,0.0,89,0.00,,,0.00,0,WeatherCatV1.14B232,2013-05-05 09:26:00,
2013-05-05 02:31:00,46.5,43.4,29.95,WNW,296,0.0,0.0,89,0.00,,,0.00,0,WeatherCatV1.14B232,2013-05-05 09:31:00,
2013-05-05 02:36:00,46.4,43.3,29.95,WNW,296,0.0,0.0,89,0.00,,,0.00,0,WeatherCatV1.14B232,2013-05-05 09:36:00,
2013-05-05 02:41:00,46.2,43.4,29.95,WNW,296,0.0,0.0,90,0.00,,,0.00,0,WeatherCatV1.14B232,2013-05-05 09:41:00,
2013-05-05 02:46:00,46.1,43.3,29.95,WNW,296,0.0,0.0,90,0.00,,,0.00,0,WeatherCatV1.14B232,2013-05-05 09:46:00,
2013-05-05 02:51:00,46.0,43.2,29.95,WNW,296,0.0,0.0,90,0.00,,,0.00,0,WeatherCatV1.14B232,2013-05-05 09:51:00,
2013-05-05 02:56:00,45.8,43.0,29.95,WNW,296,0.0,0.0,90,0.00,,,0.00,0,WeatherCatV1.14B232,2013-05-05 09:56:00,
2013-05-05 03:01:00,45.7,42.9,29.95,WNW,296,0.0,0.0,90,0.00,,,0.00,0,WeatherCatV1.14B232,2013-05-05 10:01:00,
2013-05-05 03:06:00,45.7,42.9,29.95,WNW,296,0.0,0.0,90,0.00,,,0.00,0,WeatherCatV1.14B232,2013-05-05 10:06:00,
2013-05-05 03:11:00,45.5,42.7,29.95,WNW,296,0.0,0.0,90,0.00,,,0.00,0,WeatherCatV1.14B232,2013-05-05 10:11:00,
2013-05-05 03:16:00,45.4,42.9,29.95,WNW,296,0.0,0.0,91,0.00,,,0.00,0,WeatherCatV1.14B232,2013-05-05 10:16:00,
2013-05-05 03:21:00,45.2,42.7,29.95,WNW,296,0.0,0.0,91,0.00,,,0.00,0,WeatherCatV1.14B232,2013-05-05 10:21:00,
2013-05-05 03:26:00,45.1,42.6,29.95,WNW,296,0.0,0.0,91,0.00,,,0.00,0,WeatherCatV1.14B232,2013-05-05 10:26:00,
2013-05-05 03:31:00,44.9,42.4,29.95,WNW,296,0.0,0.0,91,0.00,,,0.00,0,WeatherCatV1.14B232,2013-05-05 10:31:00,
2013-05-05 03:36:00,44.8,42.3,29.95,WNW,296,0.0,0.0,91,0.00,,,0.00,0,WeatherCatV1.14B232,2013-05-05 10:36:00,
2013-05-05 03:41:00,44.6,42.1,29.95,WNW,296,0.0,0.0,91,0.00,,,0.00,0,WeatherCatV1.14B232,2013-05-05 10:41:00,
2013-05-05 03:46:00,44.6,42.1,29.95,WNW,296,0.0,0.0,91,0.00,,,0.00,0,WeatherCatV1.14B232,2013-05-05 10:46:00,
2013-05-05 03:51:00,44.5,42.0,29.95,WNW,296,0.0,0.0,91,0.00,,,0.00,0,WeatherCatV1.14B232,2013-05-05 10:51:00,
2013-05-05 03:56:00,44.3,42.1,29.95,WNW,296,0.0,0.0,92,0.00,,,0.00,0,WeatherCatV1.14B232,2013-05-05 10:56:00,
2013-05-05 04:01:00,44.2,42.0,29.95,WNW,296,0.0,0.0,92,0.00,,,0.00,0,WeatherCatV1.14B232,2013-05-05 11:01:00,
2013-05-05 04:06:00,44.2,42.0,29.95,WNW,296,0.0,0.0,92,0.00,,,0.00,0,WeatherCatV1.14B232,2013-05-05 11:06:00,
2013-05-05 04:11:00,44.1,41.9,29.95,WNW,296,0.0,0.0,92,0.00,,,0.00,0,WeatherCatV1.14B232,2013-05-05 11:11:00,
2013-05-05 04:16:00,44.1,41.9,29.95,WNW,296,0.0,0.0,92,0.00,,,0.00,0,WeatherCatV1.14B232,2013-05-05 11:16:00,
2013-05-05 04:21:00,43.9,41.7,29.95,WNW,296,0.0,0.0,92,0.00,,,0.00,0,WeatherCatV1.14B232,2013-05-05 11:21:00,
2013-05-05 04:26:00,43.9,42.0,29.95,WNW,296,0.0,0.0,93,0.00,,,0.00,0,WeatherCatV1.14B232,2013-05-05 11:26:00,
2013-05-05 04:31:00,43.8,41.9,29.95,WNW,296,0.0,0.0,93,0.00,,,0.00,0,WeatherCatV1.14B232,2013-05-05 11:31:00,
2013-05-05 04:36:00,43.8,41.9,29.95,WNW,296,0.0,0.0,93,0.00,,,0.00,0,WeatherCatV1.14B232,2013-05-05 11:36:00,
2013-05-05 04:41:00,43.6,41.7,29.95,WNW,296,0.0,0.0,93,0.00,,,0.00,0,WeatherCatV1.14B232,2013-05-05 11:41:00,
2013-05-05 04:46:00,43.6,41.7,29.94,WNW,296,0.0,0.0,93,0.00,,,0.00,0,WeatherCatV1.14B232,2013-05-05 11:46:00,
2013-05-05 04:51:00,43.5,41.6,29.94,WNW,296,0.0,0.0,93,0.00,,,0.00,0,WeatherCatV1.14B232,2013-05-05 11:51:00,
2013-05-05 04:56:00,43.5,41.6,29.94,WNW,296,0.0,0.0,93,0.00,,,0.00,0,WeatherCatV1.14B232,2013-05-05 11:56:00,
2013-05-05 05:01:00,43.3,41.4,29.94,WNW,296,0.0,0.0,93,0.00,,,0.00,0,WeatherCatV1.14B232,2013-05-05 12:01:00,
2013-05-05 05:06:00,43.3,41.4,29.94,WNW,296,0.0,0.0,93,0.00,,,0.00,0,WeatherCatV1.14B232,2013-05-05 12:06:00,
2013-05-05 05:11:00,43.2,41.3,29.94,WNW,296,0.0,0.0,93,0.00,,,0.00,0,WeatherCatV1.14B232,2013-05-05 12:11:00,
2013-05-05 05:16:00,43.1,41.2,29.94,WNW,296,0.0,0.0,93,0.00,,,0.00,0,WeatherCatV1.14B232,2013-05-05 12:16:00,
2013-05-05 05:21:00,43.1,41.2,29.94,WNW,296,0.0,0.0,93,0.00,,,0.00,0,WeatherCatV1.14B232,2013-05-05 12:21:00,
2013-05-05 05:26:00,43.1,41.2,29.94,WNW,296,0.0,0.0,93,0.00,,,0.00,0,WeatherCatV1.14B232,2013-05-05 12:26:00,
2013-05-05 05:31:00,42.9,41.0,29.94,WNW,296,0.0,0.0,93,0.00,,,0.00,0,WeatherCatV1.14B232,2013-05-05 12:31:00,
2013-05-05 05:36:00,42.9,41.0,29.94,WNW,296,0.0,0.0,93,0.00,,,0.00,0,WeatherCatV1.14B232,2013-05-05 12:36:00,
2013-05-05 05:41:00,42.8,40.9,29.94,WNW,296,0.0,0.0,93,0.00,,,0.00,0,WeatherCatV1.14B232,2013-05-05 12:41:00,
2013-05-05 05:46:00,42.8,40.9,29.94,WNW,296,0.0,0.0,93,0.00,,,0.00,5,WeatherCatV1.14B232,2013-05-05 12:46:00,
2013-05-05 05:51:00,42.6,41.0,29.94,WNW,296,0.0,0.0,94,0.00,,,0.00,5,WeatherCatV1.14B232,2013-05-05 12:51:00,
2013-05-05 05:57:00,42.6,41.0,29.94,WNW,296,0.0,0.0,94,0.00,,,0.00,9,WeatherCatV1.14B232,2013-05-05 12:57:00,
2013-05-05 06:02:00,42.5,40.9,29.93,WNW,296,0.0,0.0,94,0.00,,,0.00,11,WeatherCatV1.14B232,2013-05-05 13:02:00,
2013-05-05 06:07:00,42.5,40.9,29.93,WNW,296,0.0,0.0,94,0.00,,,0.00,12,WeatherCatV1.14B232,2013-05-05 13:07:00,
2013-05-05 06:12:00,42.5,40.9,29.93,WNW,296,0.0,0.0,94,0.00,,,0.00,14,WeatherCatV1.14B232,2013-05-05 13:12:00,
2013-05-05 06:17:00,42.5,40.9,29.93,WNW,296,0.0,0.0,94,0.00,,,0.00,18,WeatherCatV1.14B232,2013-05-05 13:17:00,
2013-05-05 06:22:00,42.3,40.7,29.93,WNW,296,0.0,0.0,94,0.00,,,0.00,18,WeatherCatV1.14B232,2013-05-05 13:22:00,
2013-05-05 06:27:00,42.3,40.7,29.93,WNW,296,0.0,0.0,94,0.00,,,0.00,19,WeatherCatV1.14B232,2013-05-05 13:27:00,
2013-05-05 06:32:00,42.3,40.7,29.93,WNW,296,0.0,0.0,94,0.00,,,0.00,21,WeatherCatV1.14B232,2013-05-05 13:32:00,
2013-05-05 06:37:00,42.5,40.9,29.93,WNW,296,0.0,0.0,94,0.00,,,0.00,23,WeatherCatV1.14B232,2013-05-05 13:37:00,
2013-05-05 06:42:00,42.5,41.2,29.93,WNW,296,0.0,0.0,95,0.00,,,0.00,25,WeatherCatV1.14B232,2013-05-05 13:42:00,
2013-05-05 06:47:00,42.6,41.3,29.93,WNW,296,0.0,0.0,95,0.00,,,0.00,28,WeatherCatV1.14B232,2013-05-05 13:47:00,
2013-05-05 06:52:00,42.8,41.5,29.93,WNW,296,0.0,0.0,95,0.00,,,0.00,40,WeatherCatV1.14B232,2013-05-05 13:52:00,
2013-05-05 06:57:00,42.9,41.6,29.93,WNW,296,0.0,0.0,95,0.00,,,0.00,123,WeatherCatV1.14B232,2013-05-05 13:57:00,
2013-05-05 07:02:00,43.2,41.9,29.93,WNW,296,0.0,0.0,95,0.00,,,0.00,144,WeatherCatV1.14B232,2013-05-05 14:02:00,
2013-05-05 07:07:00,43.5,42.4,29.93,WNW,296,0.0,0.0,96,0.00,,,0.00,146,WeatherCatV1.14B232,2013-05-05 14:07:00,
2013-05-05 07:12:00,44.1,43.0,29.93,WNW,296,0.0,0.0,96,0.00,,,0.00,113,WeatherCatV1.14B232,2013-05-05 14:12:00,
2013-05-05 07:17:00,44.6,43.5,29.93,WNW,296,0.0,0.0,96,0.00,,,0.00,183,WeatherCatV1.14B232,2013-05-05 14:17:00,
2013-05-05 07:22:00,45.2,44.1,29.93,WNW,296,0.0,0.0,96,0.00,,,0.00,207,WeatherCatV1.14B232,2013-05-05 14:22:00,
2013-05-05 07:27:00,45.7,44.6,29.93,WNW,296,0.0,0.0,96,0.00,,,0.00,125,WeatherCatV1.14B232,2013-05-05 14:27:00,
2013-05-05 07:32:00,46.1,45.0,29.93,WNW,296,0.0,0.0,96,0.00,,,0.00,95,WeatherCatV1.14B232,2013-05-05 14:32:00,
2013-05-05 07:37:00,46.5,45.7,29.93,WNW,296,0.0,1.0,97,0.00,,,0.00,243,WeatherCatV1.14B232,2013-05-05 14:37:00,
2013-05-05 07:42:00,47.1,46.3,29.93,WNW,296,0.0,0.0,97,0.00,,,0.00,262,WeatherCatV1.14B232,2013-05-05 14:42:00,
2013-05-05 07:47:00,47.7,46.9,29.93,WNW,296,0.0,0.0,97,0.00,,,0.00,285,WeatherCatV1.14B232,2013-05-05 14:47:00,
2013-05-05 07:52:00,48.2,47.4,29.93,WNW,296,0.0,0.0,97,0.00,,,0.00,301,WeatherCatV1.14B232,2013-05-05 14:52:00,
2013-05-05 07:57:00,48.9,48.1,29.93,WNW,296,0.0,0.0,97,0.00,,,0.00,309,WeatherCatV1.14B232,2013-05-05 14:57:00,
2013-05-05 08:02:00,49.4,48.3,29.93,WNW,296,1.0,2.0,96,0.00,,,0.00,323,WeatherCatV1.14B232,2013-05-05 15:02:00,
2013-05-05 08:07:00,50.2,48.8,29.93,WNW,296,0.0,1.0,95,0.00,,,0.00,341,WeatherCatV1.14B232,2013-05-05 15:07:00,
2013-05-05 08:13:00,51.3,49.3,29.93,WNW,296,0.0,0.0,93,0.00,,,0.00,362,WeatherCatV1.14B232,2013-05-05 15:13:00,
2013-05-05 08:18:00,52.6,49.5,29.93,WNW,296,0.0,0.0,89,0.00,,,0.00,376,WeatherCatV1.14B232,2013-05-05 15:18:00,
2013-05-05 08:23:00,57.2,49.0,29.93,WNW,296,0.0,0.0,74,0.00,,,0.00,392,WeatherCatV1.14B232,2013-05-05 15:23:00,
2013-05-05 08:28:00,58.9,46.7,29.93,WNW,296,0.0,0.0,64,0.00,,,0.00,406,WeatherCatV1.14B232,2013-05-05 15:28:00,
2013-05-05 08:33:00,60.2,48.0,29.92,WNW,296,0.0,0.0,64,0.00,,,0.00,422,WeatherCatV1.14B232,2013-05-05 15:33:00,
2013-05-05 08:38:00,61.0,46.6,29.92,WNW,296,0.0,0.0,59,0.00,,,0.00,438,WeatherCatV1.14B232,2013-05-05 15:38:00,
2013-05-05 08:43:00,61.8,45.5,29.92,WNW,296,0.0,0.0,55,0.00,,,0.00,457,WeatherCatV1.14B232,2013-05-05 15:43:00,
2013-05-05 08:48:00,62.0,46.1,29.92,WNW,296,0.0,1.0,56,0.00,,,0.00,471,WeatherCatV1.14B232,2013-05-05 15:48:00,
2013-05-05 08:53:00,62.7,44.8,29.92,WNW,296,0.0,0.0,52,0.00,,,0.00,487,WeatherCatV1.14B232,2013-05-05 15:53:00,
2013-05-05 08:58:00,63.5,45.0,29.92,WNW,296,0.0,0.0,51,0.00,,,0.00,504,WeatherCatV1.14B232,2013-05-05 15:58:00,
2013-05-05 09:03:00,64.0,45.0,29.92,WNW,296,0.0,1.0,50,0.00,,,0.00,515,WeatherCatV1.14B232,2013-05-05 16:03:00,
2013-05-05 09:08:00,64.0,46.0,29.92,WNW,296,0.0,1.0,52,0.00,,,0.00,529,WeatherCatV1.14B232,2013-05-05 16:08:00,
2013-05-05 09:13:00,64.5,46.5,29.92,WNW,296,0.0,1.0,52,0.00,,,0.00,541,WeatherCatV1.14B232,2013-05-05 16:13:00,
2013-05-05 09:18:00,65.3,46.2,29.91,WNW,296,0.0,1.0,50,0.00,,,0.00,559,WeatherCatV1.14B232,2013-05-05 16:18:00,
2013-05-05 09:23:00,65.6,47.0,29.91,WNW,296,0.0,0.0,51,0.00,,,0.00,571,WeatherCatV1.14B232,2013-05-05 16:23:00,
2013-05-05 09:28:00,66.3,46.6,29.91,WNW,296,0.0,0.0,49,0.00,,,0.00,585,WeatherCatV1.14B232,2013-05-05 16:28:00,
2013-05-05 09:33:00,67.1,46.7,29.91,WNW,296,0.0,1.0,48,0.00,,,0.00,599,WeatherCatV1.14B232,2013-05-05 16:33:00,
2013-05-05 09:38:00,67.4,47.0,29.91,WNW,296,0.0,1.0,48,0.00,,,0.00,610,WeatherCatV1.14B232,2013-05-05 16:38:00,
2013-05-05 09:43:00,67.8,47.4,29.91,WNW,296,0.0,1.0,48,0.00,,,0.00,624,WeatherCatV1.14B232,2013-05-05 16:43:00,
2013-05-05 09:48:00,68.8,48.3,29.91,WNW,296,0.0,1.0,48,0.00,,,0.00,638,WeatherCatV1.14B232,2013-05-05 16:48:00,
2013-05-05 09:53:00,69.3,47.6,29.91,NW,305,2.0,4.0,46,0.00,,,0.00,652,WeatherCatV1.14B232,2013-05-05 16:53:00,
2013-05-05 09:58:00,68.8,47.2,29.91,NE,53,2.0,3.0,46,0.00,,,0.00,661,WeatherCatV1.14B232,2013-05-05 16:58:00,
2013-05-05 10:03:00,69.6,46.7,29.89,West,264,0.0,0.0,44,0.00,,,0.00,675,WeatherCatV1.14B232,2013-05-05 17:03:00,
2013-05-05 10:08:00,69.1,48.0,29.89,West,264,0.0,1.0,47,0.00,,,0.00,686,WeatherCatV1.14B232,2013-05-05 17:08:00,
2013-05-05 10:13:00,69.4,47.1,29.89,NNW,344,1.0,2.0,45,0.00,,,0.00,698,WeatherCatV1.14B232,2013-05-05 17:13:00,
2013-05-05 10:18:00,70.4,47.4,29.89,West,266,0.0,3.0,44,0.00,,,0.00,708,WeatherCatV1.14B232,2013-05-05 17:18:00,
2013-05-05 10:23:00,70.1,46.6,29.89,WNW,302,0.0,1.0,43,0.00,,,0.00,721,WeatherCatV1.14B232,2013-05-05 17:23:00,
2013-05-05 10:28:00,70.4,46.8,29.89,NW,307,0.0,3.0,43,0.00,,,0.00,731,WeatherCatV1.14B232,2013-05-05 17:28:00,
2013-05-05 10:33:00,70.4,48.6,29.89,NW,317,0.0,2.0,46,0.00,,,0.00,742,WeatherCatV1.14B232,2013-05-05 17:33:00,
2013-05-05 10:38:00,71.1,47.5,29.89,WNW,293,0.0,2.0,43,0.00,,,0.00,752,WeatherCatV1.14B232,2013-05-05 17:38:00,
2013-05-05 10:43:00,71.5,45.2,29.89,SW,217,0.0,5.0,39,0.00,,,0.00,763,WeatherCatV1.14B232,2013-05-05 17:43:00,
2013-05-05 10:48:00,72.1,46.4,29.89,WNW,291,1.0,3.0,40,0.00,,,0.00,770,WeatherCatV1.14B232,2013-05-05 17:48:00,
2013-05-05 10:53:00,72.1,47.7,29.89,WNW,295,0.0,1.0,42,0.00,,,0.00,780,WeatherCatV1.14B232,2013-05-05 17:53:00,
2013-05-05 10:58:00,72.7,46.3,29.89,WNW,284,0.0,3.0,39,0.00,,,0.00,791,WeatherCatV1.14B232,2013-05-05 17:58:00,
2013-05-05 11:03:00,73.0,46.6,29.88,SW,217,4.0,5.0,39,0.00,,,0.00,800,WeatherCatV1.14B232,2013-05-05 18:03:00,
2013-05-05 11:08:00,73.0,47.2,29.88,WNW,302,0.0,3.0,40,0.00,,,0.00,807,WeatherCatV1.14B232,2013-05-05 18:08:00,
2013-05-05 11:13:00,73.9,48.0,29.88,North,355,2.0,4.0,40,0.00,,,0.00,812,WeatherCatV1.14B232,2013-05-05 18:13:00,
2013-05-05 11:18:00,74.0,47.5,29.88,West,266,0.0,2.0,39,0.00,,,0.00,824,WeatherCatV1.14B232,2013-05-05 18:18:00,
2013-05-05 11:23:00,73.7,47.9,29.88,West,279,0.0,3.0,40,0.00,,,0.00,831,WeatherCatV1.14B232,2013-05-05 18:23:00,
2013-05-05 11:28:00,74.2,46.9,29.88,WNW,288,3.0,3.0,38,0.00,,,0.00,838,WeatherCatV1.14B232,2013-05-05 18:28:00,
2013-05-05 11:33:00,73.5,46.3,29.87,NNW,339,3.0,4.0,38,0.00,,,0.00,847,WeatherCatV1.14B232,2013-05-05 18:33:00,
2013-05-05 11:38:00,74.4,47.1,29.87,WNW,288,0.0,1.0,38,0.00,,,0.00,853,WeatherCatV1.14B232,2013-05-05 18:38:00,
2013-05-05 11:43:00,74.7,48.8,29.87,WNW,298,0.0,2.0,40,0.00,,,0.00,860,WeatherCatV1.14B232,2013-05-05 18:43:00,
2013-05-05 11:48:00,74.7,45.2,29.86,SW,222,0.0,6.0,35,0.00,,,0.00,865,WeatherCatV1.14B232,2013-05-05 18:48:00,
2013-05-05 11:53:00,74.0,44.6,29.86,West,259,0.0,7.0,35,0.00,,,0.00,867,WeatherCatV1.14B232,2013-05-05 18:53:00,
2013-05-05 11:58:00,74.7,48.1,29.86,WSW,248,3.0,3.0,39,0.00,,,0.00,870,WeatherCatV1.14B232,2013-05-05 18:58:00,
2013-05-05 12:03:00,75.4,46.6,29.86,SW,217,0.0,2.0,36,0.00,,,0.00,877,WeatherCatV1.14B232,2013-05-05 19:03:00,
2013-05-05 12:08:00,75.8,46.2,29.86,West,277,1.0,1.0,35,0.00,,,0.00,881,WeatherCatV1.14B232,2013-05-05 19:08:00,
2013-05-05 12:13:00,75.3,45.7,29.86,NNW,344,0.0,4.0,35,0.00,,,0.00,882,WeatherCatV1.14B232,2013-05-05 19:13:00,
2013-05-05 12:18:00,74.6,44.4,29.86,NW,312,1.0,6.0,34,0.00,,,0.00,886,WeatherCatV1.14B232,2013-05-05 19:18:00,
2013-05-05 12:23:00,75.3,45.0,29.86,NW,313,3.0,4.0,34,0.00,,,0.00,889,WeatherCatV1.14B232,2013-05-05 19:23:00,
2013-05-05 12:28:00,75.1,44.0,29.86,North,350,1.0,5.0,33,0.00,,,0.00,891,WeatherCatV1.14B232,2013-05-05 19:28:00,
2013-05-05 12:33:00,76.7,44.6,29.84,NNW,334,6.0,7.0,32,0.00,,,0.00,895,WeatherCatV1.14B232,2013-05-05 19:33:00,
2013-05-05 12:38:00,76.5,45.2,29.84,North,355,0.0,1.0,33,0.00,,,0.00,896,WeatherCatV1.14B232,2013-05-05 19:38:00,
2013-05-05 12:43:00,76.7,44.6,29.84,NNW,340,3.0,7.0,32,0.00,,,0.00,900,WeatherCatV1.14B232,2013-05-05 19:43:00,
2013-05-05 12:48:00,76.8,45.5,29.84,NNW,335,1.0,5.0,33,0.00,,,0.00,898,WeatherCatV1.14B232,2013-05-05 19:48:00,
2013-05-05 12:53:00,77.0,44.9,29.84,NW,321,2.0,6.0,32,0.00,,,0.00,900,WeatherCatV1.14B232,2013-05-05 19:53:00,
2013-05-05 12:58:00,77.4,46.8,29.84,NW,326,3.0,6.0,34,0.00,,,0.00,898,WeatherCatV1.14B232,2013-05-05 19:58:00,
2013-05-05 13:03:00,77.9,47.2,29.84,NNW,337,3.0,4.0,34,0.00,,,0.00,902,WeatherCatV1.14B232,2013-05-05 20:03:00,
2013-05-05 13:08:00,78.6,45.4,29.84,NNW,327,3.0,5.0,31,0.00,,,0.00,900,WeatherCatV1.14B232,2013-05-05 20:08:00,
2013-05-05 13:13:00,78.5,45.3,29.84,NNW,332,0.0,5.0,31,0.00,,,0.00,898,WeatherCatV1.14B232,2013-05-05 20:13:00,
2013-05-05 13:18:00,78.3,45.2,29.83,NNW,331,1.0,8.0,31,0.00,,,0.00,898,WeatherCatV1.14B232,2013-05-05 20:18:00,
2013-05-05 13:23:00,78.3,45.2,29.83,NNW,342,2.0,3.0,31,0.00,,,0.00,898,WeatherCatV1.14B232,2013-05-05 20:23:00,
2013-05-05 13:28:00,78.8,47.2,29.83,NNW,333,4.0,4.0,33,0.00,,,0.00,893,WeatherCatV1.14B232,2013-05-05 20:28:00,
2013-05-05 13:33:00,78.6,46.3,29.83,NNW,330,0.0,4.0,32,0.00,,,0.00,891,WeatherCatV1.14B232,2013-05-05 20:33:00,
2013-05-05 13:38:00,79.2,46.8,29.83,WNW,284,1.0,5.0,32,0.00,,,0.00,888,WeatherCatV1.14B232,2013-05-05 20:38:00,
2013-05-05 13:43:00,79.2,49.9,29.83,North,0,0.0,6.0,36,0.00,,,0.00,882,WeatherCatV1.14B232,2013-05-05 20:43:00,
2013-05-05 13:48:00,79.0,49.7,29.83,NNW,327,7.0,7.0,36,0.00,,,0.00,879,WeatherCatV1.14B232,2013-05-05 20:48:00,
2013-05-05 13:53:00,78.5,50.0,29.83,North,0,1.0,7.0,37,0.00,,,0.00,877,WeatherCatV1.14B232,2013-05-05 20:53:00,
2013-05-05 13:58:00,78.5,47.8,29.83,NNW,329,6.0,7.0,34,0.00,,,0.00,870,WeatherCatV1.14B232,2013-05-05 20:58:00,
2013-05-05 14:03:00,79.2,50.7,29.82,NNW,329,3.0,7.0,37,0.00,,,0.00,865,WeatherCatV1.14B232,2013-05-05 21:03:00,
2013-05-05 14:08:00,79.6,50.3,29.82,NNW,327,9.0,9.0,36,0.00,,,0.00,861,WeatherCatV1.14B232,2013-05-05 21:08:00,
2013-05-05 14:13:00,79.6,51.0,29.82,West,279,3.0,3.0,37,0.00,,,0.00,856,WeatherCatV1.14B232,2013-05-05 21:13:00,
2013-05-05 14:18:00,79.9,49.8,29.81,NW,320,2.0,5.0,35,0.00,,,0.00,849,WeatherCatV1.14B232,2013-05-05 21:18:00,
2013-05-05 14:23:00,79.4,52.9,29.81,NW,304,2.0,7.0,40,0.00,,,0.00,846,WeatherCatV1.14B232,2013-05-05 21:23:00,
2013-05-05 14:28:00,78.8,50.3,29.81,North,5,3.0,3.0,37,0.00,,,0.00,838,WeatherCatV1.14B232,2013-05-05 21:28:00,
2013-05-05 14:33:00,78.8,51.7,29.81,NW,308,0.0,3.0,39,0.00,,,0.00,833,WeatherCatV1.14B232,2013-05-05 21:33:00,
2013-05-05 14:38:00,78.8,50.3,29.81,WNW,292,2.0,4.0,37,0.00,,,0.00,823,WeatherCatV1.14B232,2013-05-05 21:38:00,
2013-05-05 14:43:00,78.6,50.1,29.81,West,267,1.0,5.0,37,0.00,,,0.00,816,WeatherCatV1.14B232,2013-05-05 21:43:00,
2013-05-05 14:48:00,79.0,52.6,29.81,SW,224,1.0,6.0,40,0.00,,,0.00,814,WeatherCatV1.14B232,2013-05-05 21:48:00,
2013-05-05 14:53:00,79.4,49.3,29.81,South,191,2.0,3.0,35,0.00,,,0.00,803,WeatherCatV1.14B232,2013-05-05 21:53:00,
2013-05-05 14:58:00,78.6,47.9,29.81,North,355,8.0,10.0,34,0.00,,,0.00,796,WeatherCatV1.14B232,2013-05-05 21:58:00,
2013-05-05 15:03:00,77.9,48.8,29.81,WSW,257,1.0,5.0,36,0.00,,,0.00,788,WeatherCatV1.14B232,2013-05-05 22:03:00,
2013-05-05 15:08:00,78.8,48.0,29.81,WSW,250,2.0,6.0,34,0.00,,,0.00,779,WeatherCatV1.14B232,2013-05-05 22:08:00,
2013-05-05 15:13:00,78.3,47.6,29.81,SW,224,1.0,9.0,34,0.00,,,0.00,768,WeatherCatV1.14B232,2013-05-05 22:13:00,
2013-05-05 15:18:00,78.6,47.9,29.80,SW,218,0.0,6.0,34,0.00,,,0.00,758,WeatherCatV1.14B232,2013-05-05 22:18:00,
2013-05-05 15:23:00,80.1,48.4,29.80,NNW,330,1.0,4.0,33,0.00,,,0.00,747,WeatherCatV1.14B232,2013-05-05 22:23:00,
2013-05-05 15:28:00,80.5,49.5,29.80,WNW,293,1.0,2.0,34,0.00,,,0.00,738,WeatherCatV1.14B232,2013-05-05 22:28:00,
2013-05-05 15:33:00,79.4,48.6,29.80,NNW,333,0.0,2.0,34,0.00,,,0.00,729,WeatherCatV1.14B232,2013-05-05 22:33:00,
2013-05-05 15:38:00,79.0,48.2,29.80,NNW,340,0.0,2.0,34,0.00,,,0.00,719,WeatherCatV1.14B232,2013-05-05 22:38:00,
2013-05-05 15:43:00,79.6,47.9,29.80,WNW,303,0.0,3.0,33,0.00,,,0.00,707,WeatherCatV1.14B232,2013-05-05 22:43:00,
2013-05-05 15:48:00,79.4,47.8,29.79,WSW,252,0.0,2.0,33,0.00,,,0.00,694,WeatherCatV1.14B232,2013-05-05 22:48:00,
2013-05-05 15:53:00,79.4,48.6,29.79,WSW,245,1.0,6.0,34,0.00,,,0.00,686,WeatherCatV1.14B232,2013-05-05 22:53:00,
2013-05-05 15:58:00,79.2,49.9,29.79,WNW,300,5.0,5.0,36,0.00,,,0.00,673,WeatherCatV1.14B232,2013-05-05 22:58:00,
2013-05-05 16:03:00,79.0,49.7,29.79,SW,217,0.0,6.0,36,0.00,,,0.00,661,WeatherCatV1.14B232,2013-05-05 23:03:00,
2013-05-05 16:08:00,79.2,49.9,29.79,NNW,329,1.0,5.0,36,0.00,,,0.00,649,WeatherCatV1.14B232,2013-05-05 23:08:00,
2013-05-05 16:13:00,78.6,48.6,29.79,NNW,330,3.0,9.0,35,0.00,,,0.00,638,WeatherCatV1.14B232,2013-05-05 23:13:00,
2013-05-05 16:18:00,78.5,50.0,29.78,NNW,340,0.0,5.0,37,0.00,,,0.00,622,WeatherCatV1.14B232,2013-05-05 23:18:00,
2013-05-05 16:23:00,78.6,50.8,29.78,NNW,340,6.0,9.0,38,0.00,,,0.00,613,WeatherCatV1.14B232,2013-05-05 23:23:00,
2013-05-05 16:28:00,78.6,49.4,29.78,WNW,298,3.0,4.0,36,0.00,,,0.00,601,WeatherCatV1.14B232,2013-05-05 23:28:00,
2013-05-05 16:33:00,78.6,47.9,29.78,NNW,331,2.0,9.0,34,0.00,,,0.00,589,WeatherCatV1.14B232,2013-05-05 23:33:00,
2013-05-05 16:38:00,78.1,49.7,29.78,NW,317,1.0,4.0,37,0.00,,,0.00,575,WeatherCatV1.14B232,2013-05-05 23:38:00,
2013-05-05 16:43:00,78.6,50.1,29.78,WNW,288,1.0,8.0,37,0.00,,,0.00,566,WeatherCatV1.14B232,2013-05-05 23:43:00,
2013-05-05 16:48:00,79.4,50.8,29.77,NNW,337,1.0,3.0,37,0.00,,,0.00,550,WeatherCatV1.14B232,2013-05-05 23:48:00,
2013-05-05 16:53:00,79.6,50.3,29.77,WNW,301,0.0,2.0,36,0.00,,,0.00,536,WeatherCatV1.14B232,2013-05-05 23:53:00,
2013-05-05 16:58:00,78.6,50.1,29.77,NW,322,2.0,9.0,37,0.00,,,0.00,522,WeatherCatV1.14B232,2013-05-05 23:58:00,
2013-05-05 17:03:00,77.6,50.7,29.76,NNW,333,7.0,9.0,39,0.00,,,0.00,508,WeatherCatV1.14B232,2013-05-06 00:03:00,
2013-05-05 17:08:00,77.6,51.3,29.76,NNW,345,2.0,2.0,40,0.00,,,0.00,492,WeatherCatV1.14B232,2013-05-06 00:08:00,
2013-05-05 17:13:00,77.9,49.5,29.76,NNW,328,1.0,7.0,37,0.00,,,0.00,478,WeatherCatV1.14B232,2013-05-06 00:13:00,
2013-05-05 17:18:00,77.7,49.3,29.76,NNW,336,1.0,4.0,37,0.00,,,0.00,464,WeatherCatV1.14B232,2013-05-06 00:18:00,
2013-05-05 17:24:00,77.9,49.5,29.76,North,5,0.0,11.0,37,0.00,,,0.00,452,WeatherCatV1.14B232,2013-05-06 00:24:00,
2013-05-05 17:29:00,77.9,49.5,29.76,NW,306,1.0,5.0,37,0.00,,,0.00,315,WeatherCatV1.14B232,2013-05-06 00:29:00,
2013-05-05 17:34:00,78.1,49.7,29.75,WNW,298,0.0,11.0,37,0.00,,,0.00,216,WeatherCatV1.14B232,2013-05-06 00:34:00,
2013-05-05 17:39:00,77.7,50.0,29.75,NNW,332,0.0,8.0,38,0.00,,,0.00,237,WeatherCatV1.14B232,2013-05-06 00:39:00,
2013-05-05 17:44:00,77.7,50.0,29.75,NNW,337,2.0,9.0,38,0.00,,,0.00,188,WeatherCatV1.14B232,2013-05-06 00:44:00,
2013-05-05 17:49:00,77.7,50.0,29.75,NW,309,3.0,7.0,38,0.00,,,0.00,95,WeatherCatV1.14B232,2013-05-06 00:49:00,
2013-05-05 17:54:00,77.7,50.7,29.75,WSW,257,1.0,4.0,39,0.00,,,0.00,146,WeatherCatV1.14B232,2013-05-06 00:54:00,
2013-05-05 17:59:00,77.9,51.6,29.75,NW,326,4.0,5.0,40,0.00,,,0.00,83,WeatherCatV1.14B232,2013-05-06 00:59:00,
2013-05-05 18:04:00,77.7,50.7,29.75,NW,320,0.0,4.0,39,0.00,,,0.00,118,WeatherCatV1.14B232,2013-05-06 01:04:00,
2013-05-05 18:09:00,77.7,50.7,29.75,NNW,340,1.0,4.0,39,0.00,,,0.00,183,WeatherCatV1.14B232,2013-05-06 01:09:00,
2013-05-05 18:14:00,77.7,51.4,29.75,NW,326,6.0,7.0,40,0.00,,,0.00,179,WeatherCatV1.14B232,2013-05-06 01:14:00,
2013-05-05 18:19:00,77.7,51.4,29.75,NW,321,4.0,6.0,40,0.00,,,0.00,125,WeatherCatV1.14B232,2013-05-06 01:19:00,
2013-05-05 18:24:00,77.7,52.1,29.75,NNW,330,0.0,2.0,41,0.00,,,0.00,276,WeatherCatV1.14B232,2013-05-06 01:24:00,
2013-05-05 18:29:00,77.9,51.6,29.75,WNW,302,2.0,7.0,40,0.00,,,0.00,258,WeatherCatV1.14B232,2013-05-06 01:29:00,
2013-05-05 18:34:00,77.9,51.6,29.74,NW,322,2.0,4.0,40,0.00,,,0.00,142,WeatherCatV1.14B232,2013-05-06 01:34:00,
2013-05-05 18:39:00,78.1,51.8,29.74,NNW,340,5.0,9.0,40,0.00,,,0.00,40,WeatherCatV1.14B232,2013-05-06 01:39:00,
2013-05-05 18:44:00,77.7,52.1,29.74,NW,325,4.0,4.0,41,0.00,,,0.00,134,WeatherCatV1.14B232,2013-05-06 01:44:00,
2013-05-05 18:49:00,77.6,52.0,29.74,NW,308,0.0,4.0,41,0.00,,,0.00,118,WeatherCatV1.14B232,2013-05-06 01:49:00,
2013-05-05 18:54:00,77.4,52.5,29.74,NNW,347,3.0,7.0,42,0.00,,,0.00,158,WeatherCatV1.14B232,2013-05-06 01:54:00,
2013-05-05 18:59:00,77.2,51.7,29.74,NNW,340,1.0,4.0,41,0.00,,,0.00,86,WeatherCatV1.14B232,2013-05-06 01:59:00,
2013-05-05 19:04:00,77.0,52.1,29.74,NNW,340,0.0,0.0,42,0.00,,,0.00,97,WeatherCatV1.14B232,2013-05-06 02:04:00,
2013-05-05 19:09:00,76.8,51.3,29.74,NNW,339,0.0,1.0,41,0.00,,,0.00,72,WeatherCatV1.14B232,2013-05-06 02:09:00,
2013-05-05 19:14:00,76.7,51.9,29.74,NNW,331,1.0,2.0,42,0.00,,,0.00,58,WeatherCatV1.14B232,2013-05-06 02:14:00,
2013-05-05 19:19:00,76.5,51.0,29.74,NNW,328,2.0,2.0,41,0.00,,,0.00,30,WeatherCatV1.14B232,2013-05-06 02:19:00,
2013-05-05 19:24:00,76.1,52.0,29.74,NNW,328,1.0,2.0,43,0.00,,,0.00,35,WeatherCatV1.14B232,2013-05-06 02:24:00,
2013-05-05 19:29:00,75.8,51.7,29.74,NW,318,0.0,3.0,43,0.00,,,0.00,46,WeatherCatV1.14B232,2013-05-06 02:29:00,
2013-05-05 19:34:00,75.4,51.3,29.74,NW,318,0.0,0.0,43,0.00,,,0.00,23,WeatherCatV1.14B232,2013-05-06 02:34:00,
2013-05-05 19:39:00,75.3,51.2,29.74,NW,318,1.0,1.0,43,0.00,,,0.00,21,WeatherCatV1.14B232,2013-05-06 02:39:00,
2013-05-05 19:44:00,74.9,50.9,29.74,NW,318,0.0,1.0,43,0.00,,,0.00,19,WeatherCatV1.14B232,2013-05-06 02:44:00,
2013-05-05 19:49:00,74.7,50.7,29.74,NW,318,0.0,0.0,43,0.00,,,0.00,18,WeatherCatV1.14B232,2013-05-06 02:49:00,
2013-05-05 19:54:00,74.4,50.4,29.74,NW,318,0.0,2.0,43,0.00,,,0.00,16,WeatherCatV1.14B232,2013-05-06 02:54:00,
2013-05-05 19:59:00,74.0,51.3,29.74,NW,318,0.0,0.0,45,0.00,,,0.00,14,WeatherCatV1.14B232,2013-05-06 02:59:00,
2013-05-05 20:04:00,73.7,51.6,29.74,NW,318,0.0,0.0,46,0.00,,,0.00,12,WeatherCatV1.14B232,2013-05-06 03:04:00,
2013-05-05 20:09:00,73.5,53.2,29.74,NW,318,0.0,0.0,49,0.00,,,0.00,11,WeatherCatV1.14B232,2013-05-06 03:09:00,
2013-05-05 20:14:00,73.0,53.2,29.74,NW,318,0.0,0.0,50,0.00,,,0.00,9,WeatherCatV1.14B232,2013-05-06 03:14:00,
2013-05-05 20:19:00,72.5,53.3,29.74,NW,318,0.0,0.0,51,0.00,,,0.00,7,WeatherCatV1.14B232,2013-05-06 03:19:00,
2013-05-05 20:24:00,72.0,52.9,29.74,NW,318,0.0,0.0,51,0.00,,,0.00,5,WeatherCatV1.14B232,2013-05-06 03:24:00,
2013-05-05 20:29:00,71.5,52.9,29.74,NW,318,0.0,0.0,52,0.00,,,0.00,0,WeatherCatV1.14B232,2013-05-06 03:29:00,
2013-05-05 20:34:00,70.9,52.4,29.74,NW,318,0.0,0.0,52,0.00,,,0.00,0,WeatherCatV1.14B232,2013-05-06 03:34:00,
2013-05-05 20:39:00,70.3,52.3,29.74,NW,318,0.0,0.0,53,0.00,,,0.00,0,WeatherCatV1.14B232,2013-05-06 03:39:00,
2013-05-05 20:44:00,69.4,53.0,29.74,NW,318,0.0,0.0,56,0.00,,,0.00,0,WeatherCatV1.14B232,2013-05-06 03:44:00,
2013-05-05 20:49:00,68.8,52.9,29.75,NW,318,0.0,0.0,57,0.00,,,0.00,0,WeatherCatV1.14B232,2013-05-06 03:49:00,
2013-05-05 20:54:00,68.1,52.8,29.75,NW,318,0.0,0.0,58,0.00,,,0.00,0,WeatherCatV1.14B232,2013-05-06 03:54:00,
2013-05-05 20:59:00,67.6,52.3,29.75,NW,318,0.0,0.0,58,0.00,,,0.00,0,WeatherCatV1.14B232,2013-05-06 03:59:00,
2013-05-05 21:01:00,67.4,53.0,29.75,NW,318,0.0,0.0,60,0.00,,,0.00,0,WeatherCatV1.14B232,2013-05-06 04:01:00,
2013-05-05 21:06:00,66.9,53.0,29.75,NW,318,0.0,0.0,61,0.00,,,0.00,0,WeatherCatV1.14B232,2013-05-06 04:06:00,
2013-05-05 21:11:00,66.3,53.3,29.75,NW,318,0.0,0.0,63,0.00,,,0.00,0,WeatherCatV1.14B232,2013-05-06 04:11:00,
2013-05-05 21:16:00,65.8,53.7,29.75,NW,318,0.0,0.0,65,0.00,,,0.00,0,WeatherCatV1.14B232,2013-05-06 04:16:00,
2013-05-05 21:21:00,65.3,54.1,29.75,NW,318,0.0,0.0,67,0.00,,,0.00,0,WeatherCatV1.14B232,2013-05-06 04:21:00,
2013-05-05 21:26:00,64.7,53.9,29.75,NW,318,0.0,0.0,68,0.00,,,0.00,0,WeatherCatV1.14B232,2013-05-06 04:26:00,
2013-05-05 21:31:00,64.0,53.6,29.76,NW,318,0.0,0.0,69,0.00,,,0.00,0,WeatherCatV1.14B232,2013-05-06 04:31:00,
2013-05-05 21:36:00,63.5,53.1,29.76,NW,318,0.0,0.0,69,0.00,,,0.00,0,WeatherCatV1.14B232,2013-05-06 04:36:00,
2013-05-05 21:41:00,63.1,53.2,29.76,NW,318,0.0,0.0,70,0.00,,,0.00,0,WeatherCatV1.14B232,2013-05-06 04:41:00,
2013-05-05 21:46:00,62.6,52.7,29.76,NW,318,0.0,0.0,70,0.00,,,0.00,0,WeatherCatV1.14B232,2013-05-06 04:46:00,
2013-05-05 21:51:00,62.3,52.8,29.76,NW,318,0.0,0.0,71,0.00,,,0.00,0,WeatherCatV1.14B232,2013-05-06 04:51:00,
2013-05-05 21:56:00,61.8,52.7,29.76,NW,318,0.0,0.0,72,0.00,,,0.00,0,WeatherCatV1.14B232,2013-05-06 04:56:00,
2013-05-05 22:01:00,61.3,52.6,29.76,NW,318,0.0,0.0,73,0.00,,,0.00,0,WeatherCatV1.14B232,2013-05-06 05:01:00,
2013-05-05 22:06:00,61.0,52.3,29.76,NW,318,0.0,0.0,73,0.00,,,0.00,0,WeatherCatV1.14B232,2013-05-06 05:06:00,
2013-05-05 22:11:00,60.5,52.2,29.76,NW,318,0.0,0.0,74,0.00,,,0.00,0,WeatherCatV1.14B232,2013-05-06 05:11:00,
2013-05-05 22:16:00,60.2,52.2,29.76,NW,318,0.0,0.0,75,0.00,,,0.00,0,WeatherCatV1.14B232,2013-05-06 05:16:00,
2013-05-05 22:22:00,59.9,51.2,29.76,NW,318,0.0,0.0,73,0.00,,,0.00,0,WeatherCatV1.14B232,2013-05-06 05:22:00,
2013-05-05 22:27:00,59.6,52.4,29.76,NW,318,0.0,0.0,77,0.00,,,0.00,0,WeatherCatV1.14B232,2013-05-06 05:27:00,
2013-05-05 22:31:00,59.3,51.7,29.76,NW,318,0.0,0.0,76,0.00,,,0.00,0,WeatherCatV1.14B232,2013-05-06 05:31:00,
2013-05-05 22:36:00,59.0,50.4,29.76,NW,318,0.0,0.0,73,0.00,,,0.00,0,WeatherCatV1.14B232,2013-05-06 05:36:00,
2013-05-05 22:41:00,58.7,49.3,29.76,NW,318,0.0,0.0,71,0.00,,,0.00,0,WeatherCatV1.14B232,2013-05-06 05:41:00,
2013-05-05 22:46:00,58.6,48.8,29.76,NW,318,0.0,1.0,70,0.00,,,0.00,0,WeatherCatV1.14B232,2013-05-06 05:46:00,
2013-05-05 22:52:00,58.4,48.3,29.76,NW,318,0.0,0.0,69,0.00,,,0.00,0,WeatherCatV1.14B232,2013-05-06 05:52:00,
2013-05-05 22:57:00,58.4,47.9,29.76,NW,318,0.0,0.0,68,0.00,,,0.00,0,WeatherCatV1.14B232,2013-05-06 05:57:00,
2013-05-05 23:02:00,58.3,48.2,29.77,NW,322,0.0,2.0,69,0.00,,,0.00,0,WeatherCatV1.14B232,2013-05-06 06:02:00,
2013-05-05 23:07:00,58.3,48.2,29.77,WNW,288,0.0,0.0,69,0.00,,,0.00,0,WeatherCatV1.14B232,2013-05-06 06:07:00,
2013-05-05 23:12:00,58.3,48.2,29.77,WNW,288,0.0,0.0,69,0.00,,,0.00,0,WeatherCatV1.14B232,2013-05-06 06:12:00,
2013-05-05 23:17:00,58.3,47.8,29.78,WNW,288,0.0,0.0,68,0.00,,,0.00,0,WeatherCatV1.14B232,2013-05-06 06:17:00,
2013-05-05 23:22:00,58.3,47.4,29.78,WNW,288,0.0,0.0,67,0.00,,,0.00,0,WeatherCatV1.14B232,2013-05-06 06:22:00,
2013-05-05 23:27:00,58.3,47.8,29.78,WNW,288,0.0,0.0,68,0.00,,,0.00,0,WeatherCatV1.14B232,2013-05-06 06:27:00,
2013-05-05 23:32:00,58.1,47.2,29.78,WNW,288,0.0,0.0,67,0.00,,,0.00,0,WeatherCatV1.14B232,2013-05-06 06:32:00,
2013-05-05 23:37:00,58.1,47.6,29.78,WNW,288,0.0,0.0,68,0.00,,,0.00,0,WeatherCatV1.14B232,2013-05-06 06:37:00,
2013-05-05 23:42:00,58.0,47.1,29.78,WNW,288,0.0,0.0,67,0.00,,,0.00,0,WeatherCatV1.14B232,2013-05-06 06:42:00,
2013-05-05 23:47:00,57.8,46.5,29.78,WNW,288,0.0,0.0,66,0.00,,,0.00,0,WeatherCatV1.14B232,2013-05-06 06:47:00,
2013-05-05 23:52:00,57.8,46.1,29.78,WNW,288,0.0,0.0,65,0.00,,,0.00,0,WeatherCatV1.14B232,2013-05-06 06:52:00,
2013-05-05 23:57:00,57.6,46.3,29.78,WNW,288,0.0,0.0,66,0.00,,,0.00,0,WeatherCatV1.14B232,2013-05-06 06:57:00,